This demonstration page uses our WeatherBlox Daily Observations layout. Learn more.

Hourly Observations for July 11, 2020

Temp ( °F °C ) Dew Point ( °F °C ) Humidity (%) Winds ( mph kmh ) Pressure ( in mb ) Visibility ( mi km ) Precip ( " mm )
12:15 am 00:15 Clear 73 22.9 67 19.5 81 81 SSW 10 17 29.85 1011 10 16.0934 0 0
12:35 am 00:35 Clear 73 22.6 67 19.5 83 83 SSW 9 15 29.87 1011 10 16.0934 0 0
12:55 am 00:55 Clear 72 22.2 67 19.3 84 84 Calm 29.88 1012 10 16.0934 0 0
1:15 am 01:15 Partly Cloudy 73 23 67 19.7 82 82 NNE 21 33 29.97 1015 10 16.0934 0 0
1:35 am 01:35 Mostly Cloudy 73 22.6 65 18.5 78 78 ENE 22 35 29.97 1015 10 16.0934 0 0
1:55 am 01:55 Partly Cloudy 68 20 64 17.5 86 86 ENE 14 22 29.99 1015 10 16.0934 0 0
2:15 am 02:15 Partly Cloudy 67 19.2 63 17.3 89 89 ENE 16 26 30 1016 10 16.0934 0 0
2:35 am 02:35 Cloudy 67 19.3 63 17.3 88 88 E 13 20 30.01 1016 10 16.0934 0 0
2:55 am 02:55 Mostly Cloudy 67 19.5 63 17.2 87 87 E 12 19 30.01 1016 10 16.0934 0 0
3:15 am 03:15 Cloudy 67 19.7 63 17 85 85 ENE 12 19 30.02 1017 10 16.0934 0 0
3:35 am 03:35 Cloudy 67 19.5 63 17 86 86 ENE 10 17 30.02 1017 10 16.0934 0 0
3:55 am 03:55 Cloudy 66 19.1 62 16.9 87 87 E 10 17 30.01 1016 10 16.0934 0 0
4:15 am 04:15 Cloudy 67 19.2 62 16.6 85 85 E 12 19 30.01 1016 10 16.0934 0 0
4:35 am 04:35 Mostly Cloudy 66 18.7 61 16.2 85 85 ESE 10 17 29.98 1015 10 16.0934 0 0
4:55 am 04:55 Partly Cloudy 65 18.4 61 16.3 88 88 E 7 11 29.98 1015 10 16.0934 0 0
5:15 am 05:15 Clear 64 17.8 61 16.3 91 91 ESE 9 15 29.98 1015 10 16.0934 0 0
5:35 am 05:35 Clear 64 17.7 61 16.3 92 92 ESE 9 15 29.98 1015 10 16.0934 0 0
5:55 am 05:55 Clear 64 17.9 61 16.2 90 90 SSE 5 7 29.98 1015 10 16.0934 0 0
6:15 am 06:15 Clear 64 17.8 61 16.3 91 91 SE 6 9 29.99 1015 10 16.0934 0 0
6:35 am 06:35 Sunny 64 18 61 16.2 89 89 SSE 3 6 29.98 1015 10 16.0934 0 0
6:55 am 06:55 Sunny 65 18.2 61 16.1 88 88 SSE 5 7 29.99 1016 10 16.0934 0 0
7:15 am 07:15 Sunny 66 18.7 61 16.3 86 86 S 7 11 30 1016 10 16.0934 0 0
7:35 am 07:35 Sunny 67 19.5 61 16.3 82 82 S 7 11 29.99 1016 10 16.0934 0 0
7:55 am 07:55 Sunny 69 20.3 61 16.3 78 78 S 7 11 29.98 1015 10 16.0934 0 0
8:15 am 08:15 Sunny 71 21.5 62 16.5 73 73 SSW 9 15 29.98 1015 10 16.0934 0 0
8:35 am 08:35 Sunny 72 22.1 62 16.5 71 71 SSW 9 15 29.98 1015 10 16.0934 0 0
8:55 am 08:55 Sunny 74 23.2 63 17 68 68 SSW 7 11 29.98 1015 10 16.0934 0 0
9:15 am 09:15 Mostly Cloudy 74 23.1 63 17.3 70 70 WSW 5 7 29.97 1015 10 16.0934 0 0
9:35 am 09:35 Cloudy 74 23.5 64 18 71 71 NNW 8 13 29.99 1016 10 16.0934 0 0
9:55 am 09:55 Mostly Cloudy 74 23.4 64 18 72 72 NW 8 13 30.01 1016 10 16.0934 0 0
10:15 am 10:15 Sunny 75 24.1 65 18.2 70 70 NNW 6 9 30 1016 10 16.0934 0 0
10:35 am 10:35 Sunny 76 24.7 65 18.6 69 69 NNW 6 9 30.01 1016 10 16.0934 0 0
10:55 am 10:55 Sunny 76 24.6 66 18.7 70 70 N 9 15 30.01 1016 10 16.0934 0 0
11:15 am 11:15 Sunny 78 25.4 66 18.8 67 67 N 8 13 30 1016 10 16.0934 0 0
11:35 am 11:35 Sunny 78 25.8 65 18.6 65 65 N 7 11 30.01 1016 10 16.0934 0 0
11:55 am 11:55 Sunny 78 25.8 65 18.5 64 64 N 8 13 30 1016 10 16.0934 0 0
12:15 pm 12:15 Sunny 80 26.5 66 18.9 63 63 N 7 11 30 1016 10 16.0934 0 0
12:35 pm 12:35 Sunny 81 27 67 19.2 62 62 N 10 17 29.99 1016 10 16.0934 0 0
12:55 pm 12:55 Sunny 81 27.2 66 18.9 61 61 N 9 15 29.98 1015 10 16.0934 0 0
1:15 pm 13:15 Sunny 82 27.7 67 19.6 61 61 N 9 15 29.97 1015 10 16.0934 0 0
1:35 pm 13:35 Sunny 83 28.1 67 19.5 60 60 N 10 17 29.97 1015 10 16.0934 0 0
1:55 pm 13:55 Sunny 83 28.3 67 19.2 58 58 NNE 14 22 29.96 1015 10 16.0934 0 0
2:15 pm 14:15 Sunny 84 28.7 66 18.9 55 55 N 13 20 29.96 1014 10 16.0934 0 0
2:35 pm 14:35 Sunny 84 29 67 19.2 55 55 N 10 17 29.95 1014 10 16.0934 0 0
2:55 pm 14:55 Sunny 84 29.1 67 19.2 55 55 N 10 17 29.94 1014 10 16.0934 0 0
3:15 pm 15:15 Sunny 85 29.5 67 19.5 55 55 NNE 14 22 29.94 1014 10 16.0934 0 0
3:35 pm 15:35 Sunny 85 29.2 67 19.5 56 56 N 12 19 29.92 1013 10 16.0934 0 0
3:55 pm 15:55 Sunny 84 29.1 67 19.5 56 56 NNE 12 19 29.91 1013 10 16.0934 0 0
4:15 pm 16:15 Sunny 84 28.8 67 19.2 56 56 NNE 14 22 29.93 1013 10 16.0934 0 0
4:35 pm 16:35 Sunny 85 29.2 66 18.7 53 53 NE 12 19 29.92 1013 10 16.0934 0 0
4:55 pm 16:55 Sunny 85 29.2 65 18.4 52 52 N 12 19 29.92 1013 10 16.0934 0 0
5:15 pm 17:15 Sunny 84 29 65 18.3 52 52 NNE 10 17 29.91 1013 10 16.0934 0 0
5:35 pm 17:35 Sunny 84 29 65 18.3 52 52 NE 10 17 29.92 1013 10 16.0934 0 0
5:55 pm 17:55 Sunny 85 29.3 65 18.3 52 52 NNE 9 15 29.91 1013 10 16.0934 0 0
6:15 pm 18:15 Sunny 84 28.9 64 17.5 50 50 NNE 10 17 29.91 1013 10 16.0934 0 0
6:35 pm 18:35 Sunny 83 28.5 64 17.9 53 53 NNE 12 19 29.91 1013 10 16.0934 0 0
6:55 pm 18:55 Sunny 83 28.2 65 18.3 55 55 NNE 10 17 29.91 1013 10 16.0934 0 0
7:15 pm 19:15 Sunny 82 28 64 17.9 54 54 NNE 10 17 29.91 1013 10 16.0934 0 0
7:35 pm 19:35 Sunny 81 27.3 64 18 57 57 NNE 8 13 29.91 1013 10 16.0934 0 0
7:55 pm 19:55 Sunny 80 26.5 65 18.6 62 62 NNE 6 9 29.92 1013 10 16.0934 0 0
8:15 pm 20:15 Sunny 78 25.7 65 18.5 65 65 NNE 6 9 29.93 1014 10 16.0934 0 0
8:35 pm 20:35 Sunny 76 24.3 65 18.5 70 70 NE 6 9 29.94 1014 10 16.0934 0 0
8:55 pm 20:55 Sunny 73 23 65 18.6 76 76 NNE 3 6 29.96 1015 10 16.0934 0 0
9:15 pm 21:15 Clear 72 22.1 66 19 83 83 NNE 5 7 29.96 1015 10 16.0934 0 0
9:35 pm 21:35 Clear 71 21.5 65 18.5 83 83 NNE 6 9 29.96 1015 10 16.0934 0 0
9:55 pm 21:55 Clear 69 20.4 65 18.2 87 87 NNE 6 9 29.97 1015 10 16.0934 0 0
10:15 pm 22:15 Clear 69 20.6 65 18.2 86 86 NNE 5 7 29.98 1015 10 16.0934 0 0
10:35 pm 22:35 Clear 68 20.2 64 17.5 85 85 NNE 5 7 29.98 1015 10 16.0934 0 0
10:55 pm 22:55 Clear 66 19 63 17 88 88 NNE 7 11 29.99 1015 10 16.0934 0 0
11:15 pm 23:15 Clear 66 18.9 62 16.9 88 88 NE 6 9 29.99 1015 10 16.0934 0 0
11:35 pm 23:35 Clear 65 18.6 62 16.5 88 88 NE 5 7 29.99 1016 10 16.0934 0 0
11:55 pm 23:55 Clear 65 18.3 61 16.3 88 88 NE 6 9 29.99 1016 10 16.0934 0 0

Powered by AerisWeather